GFSSW_850_temp_132.txt.gz
Temp
15 15 15 15 16 16 16 16 16 17 17 17 17 18 18 17 17 18 18 18 17 17 17 17 17 17 17 17 17 16 11 11 14 15 16 17 17 18 18 18 18 18 18 18 18
15 15 15 15 15 16 16 16 16 16 17 17 17 17 18 18 18 18 18 18 17 17 18 18 17 17 17 17 17 14 10 12 14 16 16 17 16 17 17 16 17 17 18 17 17
15 15 15 16 15 15 15 16 16 16 16 17 17 17 18 18 18 19 18 18 18 17 17 18 17 17 17 16 16 13 13 14 16 17 17 16 16 17 16 15 15 14 17 17 17
15 15 15 16 16 15 16 16 16 16 16 17 17 17 18 18 17 19 18 18 18 17 17 17 17 17 15 15 16 15 16 16 17 18 17 16 17 16 16 14 14 15 15 16 16
15 15 15 16 16 16 15 16 16 16 17 16 17 17 17 17 19 19 18 18 18 17 17 17 17 16 15 15 16 15 16 17 17 17 16 16 16 16 15 15 14 14 15 15 15
14 14 14 15 16 17 17 16 16 17 17 17 17 17 17 17 19 19 18 18 18 17 17 17 17 17 16 15 15 16 16 16 16 17 16 16 16 16 15 15 14 14 14 14 14
13 14 14 15 15 16 16 17 16 16 16 17 17 17 17 19 18 19 18 18 17 17 17 17 17 16 16 15 16 16 15 14 16 16 16 16 15 14 14 14 14 14 14 13 12
13 13 14 15 15 15 16 16 17 16 15 16 16 16 18 18 19 18 18 18 17 17 17 17 16 16 16 16 15 14 13 13 15 15 16 16 13 13 13 14 13 12 13 13 13
12 13 13 14 15 15 15 16 16 16 15 15 15 16 18 18 18 18 18 18 18 17 17 16 16 16 15 12 12 11 13 13 13 15 15 15 13 12 13 13 12 12 11 12 12
12 12 13 13 14 15 16 16 16 16 15 14 15 16 17 18 18 18 18 18 17 17 16 16 15 12 10 11 12 13 13 13 12 14 15 14 12 12 13 12 11 11 10 10 10
11 12 12 13 13 14 16 15 15 15 15 16 17 17 18 18 18 18 18 17 17 17 14 14 12 12 13 12 14 14 13 12 12 13 14 13 11 12 12 12 11 9 10 9 9
10 11 12 13 13 14 15 14 14 14 13 17 17 17 18 17 18 18 18 17 16 14 14 12 12 13 13 13 14 13 13 12 12 13 14 12 12 11 12 11 10 10 9 9 9
9 10 12 12 13 14 14 13 13 14 12 15 17 16 18 18 18 18 18 17 15 14 13 12 15 14 14 15 14 14 12 13 13 13 13 11 11 11 12 11 10 10 9 10 8
9 9 9 12 13 13 13 12 13 13 10 13 15 16 17 18 17 18 18 18 15 14 12 12 14 15 14 14 13 14 13 14 14 12 11 12 10 10 11 9 9 8 10 8 8
9 9 9 10 11 12 12 12 12 13 12 15 15 17 17 18 17 16 17 17 14 14 13 14 14 14 14 14 13 13 14 13 13 12 11 11 10 9 9 10 7 8 10 7 8
7 8 9 9 10 11 12 12 12 11 11 15 16 15 15 16 16 16 17 17 16 14 14 13 15 14 14 14 14 13 13 10 9 9 10 11 10 9 10 10 8 9 9 7 8
6 7 7 7 8 11 11 12 10 9 15 15 14 14 14 14 14 14 14 13 12 12 12 14 14 15 15 14 13 12 10 7 10 8 9 10 9 9 10 8 7 8 8 8 9
6 6 7 7 8 9 10 9 8 11 13 15 14 13 13 14 14 13 12 12 12 13 10 11 13 13 14 15 12 12 11 6 8 7 6 9 9 11 10 8 8 8 7 8 9
5 6 5 7 8 8 9 8 11 11 14 14 14 13 13 14 13 13 11 11 12 11 13 10 13 14 14 14 13 11 11 10 6 6 6 7 10 11 8 8 8 8 7 7 8
3 4 5 7 6 7 6 9 10 12 15 14 15 13 12 12 13 12 11 12 13 11 13 12 13 14 13 14 12 12 10 10 6 9 11 9 9 10 11 10 9 8 8 7 7
2 3 5 6 6 5 4 7 10 12 14 14 14 13 12 12 12 11 12 13 13 11 13 11 11 13 13 12 11 11 10 8 8 8 10 10 10 8 10 10 9 8 7 7 7
2 1 5 6 5 3 4 6 10 12 13 13 14 14 12 11 11 11 12 12 13 11 12 11 9 10 12 12 11 11 10 9 9 10 7 8 9 9 9 8 9 8 7 7 7
2 2 4 4 5 4 4 6 8 10 12 13 13 13 13 12 14 11 11 12 13 11 11 10 10 10 11 12 12 12 10 9 7 7 7 8 10 7 7 7 8 8 8 7 7
1 2 4 3 4 5 6 6 6 8 10 11 12 14 13 13 11 10 11 11 12 12 13 13 8 11 12 13 9 11 10 9 10 8 8 8 11 9 7 6 7 8 8 8 8
1 2 3 3 3 5 6 6 6 6 9 12 11 11 12 12 11 10 10 10 11 12 10 11 11 9 10 12 11 12 11 9 10 10 11 11 9 10 9 7 8 10 9 8 8
1 1 3 3 4 3 5 5 5 6 8 10 9 11 11 12 12 10 10 9 11 9 9 8 10 10 13 10 10 11 11 9 9 10 9 11 9 10 11 10 9 10 9 8 8
1 1 1 3 3 3 4 5 7 7 8 9 10 9 9 10 12 13 13 13 11 9 8 8 7 8 12 11 10 11 10 10 10 9 11 11 12 8 8 7 9 10 10 10 9

GFSSW_850_temp_138.txt.gz
Temp
15 15 15 16 16 16 16 16 17 17 17 17 17 17 17 17 17 17 17 17 17 17 17 17 16 17 17 16 16 16 20 21 20 19 20 20 20 19 19 20 19 19 19 18 16
14 15 15 15 15 16 16 16 16 16 17 17 17 17 17 18 18 18 18 18 17 17 17 17 17 17 18 17 17 19 20 20 20 20 20 20 19 20 20 20 20 19 18 16 16
14 14 15 15 15 16 16 16 16 16 16 17 16 17 17 18 18 18 18 18 17 17 17 17 17 17 18 17 18 18 20 19 19 19 19 19 19 19 20 20 19 18 17 16 15
14 14 14 14 15 15 16 16 16 16 16 16 17 16 17 17 20 18 18 18 17 17 17 17 17 18 19 19 18 19 19 19 19 18 18 19 19 19 19 19 16 15 15 15 16
14 14 14 14 14 15 15 16 16 16 17 16 17 16 16 16 18 18 18 18 17 17 17 17 18 18 19 19 18 19 19 18 18 18 18 18 19 19 18 16 15 14 14 15 15
13 13 14 14 14 14 15 15 16 16 17 17 17 16 15 18 18 18 18 18 17 17 17 17 18 17 19 19 19 19 18 19 18 19 18 18 19 17 18 16 15 14 15 15 14
12 12 13 14 14 15 15 15 15 16 16 16 17 16 15 18 18 18 18 18 17 17 17 17 16 17 18 18 17 18 18 20 19 19 20 18 18 18 18 15 16 15 15 14 14
10 12 12 13 14 14 15 15 16 16 16 16 16 15 17 18 18 18 18 17 17 17 17 17 16 16 17 16 18 19 18 20 20 19 18 18 20 20 16 16 17 16 16 14 14
9 9 11 12 13 14 15 15 16 16 15 15 15 14 18 17 17 17 18 17 17 17 16 16 16 17 16 19 19 19 21 19 19 19 19 19 20 19 16 16 17 16 16 15 14
9 8 9 11 12 13 14 15 16 15 15 14 14 14 16 17 17 17 17 17 16 16 16 16 17 19 19 19 20 20 20 19 19 19 18 19 19 20 17 16 17 16 15 15 14
9 9 9 11 11 12 14 15 14 14 13 16 16 17 17 17 17 17 17 16 17 17 18 17 18 19 20 20 20 19 19 19 20 19 17 19 19 19 18 16 16 15 15 14 13
9 9 10 10 11 12 13 12 12 12 13 15 16 15 16 17 17 16 16 18 18 18 18 17 18 20 19 18 18 18 19 19 19 18 17 19 18 20 17 16 15 14 14 13 12
8 8 9 10 11 11 12 11 11 11 12 15 16 15 16 16 18 18 16 18 19 19 18 19 20 17 17 17 17 18 18 19 18 18 18 17 19 17 16 14 13 14 13 12 10
6 7 8 9 10 11 11 11 11 11 15 18 15 15 15 16 17 18 17 18 18 19 19 18 20 17 17 18 18 18 18 18 17 17 19 17 20 18 17 16 15 14 13 12 9
6 6 7 8 8 9 10 11 11 11 15 18 15 15 15 18 17 15 16 17 19 18 18 19 17 16 17 18 18 19 16 17 17 17 17 18 17 20 16 17 16 14 13 11 9
4 5 6 7 8 8 9 11 11 14 15 17 16 15 16 17 16 15 16 16 18 18 17 19 16 17 19 16 18 16 16 16 16 17 17 19 17 21 18 17 15 14 13 10 9
4 4 5 6 7 7 8 10 13 14 17 17 16 16 17 17 17 17 17 17 18 17 17 18 17 17 16 16 16 16 17 17 17 16 19 15 15 19 18 15 14 13 12 10 8
3 3 5 6 6 7 7 9 10 16 17 16 16 15 16 16 17 16 16 17 18 19 18 18 17 17 17 19 18 17 18 16 16 17 17 13 15 18 16 14 12 11 11 10 9
3 4 5 6 6 6 6 7 12 14 16 16 16 15 16 16 16 16 17 18 18 17 18 18 18 16 16 17 19 16 16 17 15 13 15 17 17 14 13 14 12 12 11 10 9
2 2 5 5 5 4 6 7 11 14 15 14 15 17 16 16 15 15 16 18 17 18 20 19 18 16 14 16 14 17 17 16 16 14 17 19 18 21 14 15 14 13 12 11 9
2 2 5 5 4 4 5 8 10 11 11 11 14 16 17 17 16 15 17 17 17 16 18 19 18 15 15 16 17 15 16 16 17 17 19 20 21 19 18 17 15 14 12 11 10
2 3 4 4 5 6 6 8 9 10 10 10 12 13 13 16 15 15 16 18 15 15 15 18 19 17 16 15 16 19 18 18 18 17 17 17 20 17 18 17 15 13 11 11 10
2 3 3 3 5 5 7 8 8 9 9 10 10 12 13 13 14 15 16 13 13 15 17 16 18 17 15 15 14 15 16 18 18 17 18 19 21 16 16 15 14 13 11 11 9
1 4 3 2 4 6 7 7 7 7 7 8 9 9 10 10 12 15 14 12 11 14 16 16 18 19 20 20 19 15 16 16 17 18 19 19 20 15 15 14 13 12 11 11 10
0 3 5 3 3 5 5 6 6 6 7 5 8 9 8 6 9 11 13 11 11 12 13 16 17 18 18 17 16 17 16 15 16 19 19 21 19 20 17 16 14 12 11 11 10
0 3 3 4 4 5 5 5 5 6 6 6 4 3 8 8 9 11 8 10 11 11 12 14 17 16 17 15 16 16 16 16 17 18 18 18 17 20 20 16 14 12 11 10 10
-0 2 3 4 4 2 4 5 5 6 6 6 7 7 6 8 10 10 7 8 8 8 11 14 15 15 17 15 15 15 16 16 16 17 18 17 19 18 16 16 15 13 11 11 11

GFSSW_850_temp_141.txt.gz
Temp
15 15 16 15 16 16 16 16 17 17 17 17 17 17 17 17 17 17 18 19 18 17 17 16 16 17 18 18 18 19 21 23 24 23 24 23 22 22 21 22 22 22 21 21 19
14 14 15 15 15 16 16 16 16 16 17 17 17 17 17 16 17 18 19 18 18 18 17 17 18 18 19 19 19 20 22 23 23 23 23 22 22 22 22 22 22 21 21 19 18
13 13 14 14 15 15 16 16 16 16 16 17 17 17 17 17 16 20 19 19 18 17 17 18 19 19 20 20 20 21 21 22 22 21 21 22 21 21 22 22 22 22 20 19 18
13 13 14 14 14 14 15 16 16 17 17 16 17 17 17 17 21 19 19 18 18 17 18 18 19 19 20 20 21 20 22 21 21 20 20 21 21 22 21 21 20 19 18 18 19
13 14 14 14 14 14 15 15 16 16 17 17 16 16 16 17 19 19 19 18 18 17 18 18 19 20 20 21 21 21 22 21 21 20 20 20 21 21 21 21 19 18 17 18 18
12 12 13 13 14 14 15 15 16 16 16 17 16 16 16 19 19 18 18 18 17 17 18 18 19 20 20 21 21 22 21 21 21 21 21 20 21 21 21 21 19 18 18 18 18
9 12 12 13 14 14 14 15 15 16 16 17 16 16 15 19 18 18 17 17 17 18 18 18 18 19 20 21 20 20 20 22 22 22 21 20 20 21 21 21 19 19 18 18 17
9 9 11 12 13 13 14 15 15 16 16 16 16 15 17 18 18 17 17 18 17 17 18 18 18 18 19 20 20 21 22 21 24 22 21 20 20 24 22 20 19 20 19 19 17
9 9 9 11 12 13 14 15 16 16 16 15 15 14 19 18 17 17 17 18 18 17 17 17 17 19 19 20 21 22 21 23 23 22 22 20 21 23 20 20 20 20 20 19 18
9 9 10 10 11 12 14 14 16 16 15 14 13 15 17 18 18 18 18 18 18 18 17 17 18 20 20 21 20 23 23 23 22 22 21 21 21 22 22 20 19 20 20 19 18
8 9 10 10 11 11 13 14 15 14 13 17 19 19 19 18 17 18 18 18 18 18 19 19 19 20 22 22 22 22 21 21 23 23 20 20 21 22 22 21 20 19 18 18 17
8 9 10 10 10 11 12 13 10 11 13 16 16 17 18 18 19 18 18 18 19 19 20 20 19 21 23 22 21 20 20 21 22 22 20 20 21 22 22 21 19 18 17 16 15
7 8 9 10 11 10 10 11 11 10 13 16 17 17 18 17 18 19 18 18 20 20 21 20 22 21 21 20 19 20 20 21 21 21 21 20 20 22 21 19 17 17 16 15 13
6 7 8 10 9 10 10 10 10 10 14 19 17 17 18 18 18 20 18 19 21 20 21 21 22 21 20 20 20 19 22 21 20 19 20 20 20 22 21 18 18 18 16 15 11
5 5 7 7 8 8 8 10 11 11 16 21 18 16 18 18 20 19 19 19 20 20 21 21 20 20 19 20 21 20 19 19 19 19 19 20 19 23 21 19 19 18 16 14 11
5 5 6 6 6 7 8 10 10 14 16 19 18 17 18 17 20 17 19 19 19 20 21 21 20 20 20 20 20 20 19 18 19 19 18 21 20 23 21 21 20 17 15 13 11
4 5 5 6 6 7 9 9 13 15 20 20 19 18 18 19 19 18 18 18 18 17 18 19 20 19 19 18 18 18 19 18 18 17 19 19 19 21 20 19 19 17 16 13 11
3 4 5 6 6 6 7 11 12 17 18 19 18 18 18 19 19 19 18 18 19 20 20 19 19 20 19 20 19 18 19 17 13 19 19 17 17 21 21 18 16 15 15 12 10
3 3 4 4 5 6 7 9 14 16 18 17 18 18 17 19 19 19 18 19 20 20 19 20 20 21 20 20 21 20 18 20 19 19 17 19 20 18 18 17 15 14 14 12 11
2 3 4 5 5 5 8 9 13 15 16 15 14 17 17 18 16 18 18 20 20 21 21 21 20 19 18 19 19 19 20 18 18 15 18 22 22 22 17 18 16 16 14 13 11
2 4 6 5 5 6 7 9 11 12 13 12 13 15 17 18 18 17 18 20 20 20 20 19 20 17 16 16 18 17 18 18 20 20 20 22 23 23 21 19 18 17 15 14 12
2 3 6 5 6 8 7 10 10 11 12 13 11 12 13 15 16 18 18 19 19 19 17 19 20 18 16 19 20 20 19 20 19 19 19 21 21 21 22 20 19 17 15 14 12
2 2 4 5 5 6 9 10 10 10 10 11 11 11 12 11 12 15 17 18 16 16 17 18 18 18 19 17 17 18 19 20 21 21 19 20 22 21 21 20 18 17 14 14 12
1 2 3 3 6 8 9 9 10 10 10 9 9 10 11 10 11 11 14 14 12 14 16 17 18 18 20 20 19 17 18 19 20 20 19 21 21 18 19 19 18 16 15 13 12
1 1 4 4 5 8 9 9 9 9 10 9 9 9 10 10 11 10 11 13 13 12 13 15 15 18 20 21 21 20 19 19 19 20 21 22 22 22 19 19 18 16 15 14 13
1 -0 2 5 5 7 7 7 8 9 9 8 8 8 8 5 6 9 10 8 8 10 12 14 14 18 18 20 18 19 20 19 19 20 20 21 21 23 21 19 18 17 15 14 13
0 0 0 3 6 6 7 7 7 8 8 8 9 9 9 8 8 7 6 6 7 8 8 10 14 15 16 19 18 16 19 19 19 20 20 20 22 22 21 20 18 17 15 14 13

GFSSW_850_temp_144.txt.gz
Temp
14 15 15 15 15 16 16 16 16 17 17 17 17 17 17 17 18 18 18 18 19 18 18 17 17 18 18 19 18 19 18 19 21 23 23 23 22 23 22 21 22 22 22 20 19
14 14 14 15 15 15 15 16 16 16 16 17 17 17 17 17 18 18 19 18 19 18 17 17 18 18 18 19 19 19 18 21 22 22 22 23 22 22 22 22 22 22 22 21 19
13 14 14 14 14 15 16 16 16 16 16 16 17 17 17 17 17 19 20 19 19 18 18 18 19 18 19 20 20 20 18 22 22 22 22 22 22 22 22 20 22 22 21 20 19
12 13 13 14 14 14 15 15 16 16 17 17 16 17 17 17 19 20 19 19 19 18 18 18 19 19 20 20 21 20 21 22 22 21 21 21 21 22 22 21 21 20 20 19 19
12 13 13 14 14 14 14 15 16 16 16 17 17 16 16 16 18 19 20 19 18 18 18 19 19 20 19 21 21 21 21 22 22 21 20 20 20 20 21 22 21 20 19 18 19
10 12 13 13 13 14 15 15 15 16 16 17 16 16 16 17 19 19 19 19 18 17 18 19 19 20 21 21 21 22 21 21 22 21 21 21 21 21 21 21 21 19 19 18 19
10 10 11 13 13 14 14 15 15 16 16 16 16 16 14 17 19 19 18 19 18 18 19 19 19 19 20 20 21 21 19 20 21 21 21 21 19 20 21 22 21 20 19 19 18
10 10 10 11 12 13 14 15 15 16 16 16 16 15 15 18 18 19 18 18 18 18 18 19 18 18 19 20 20 20 20 18 22 22 22 20 17 20 23 21 21 20 20 19 19
9 10 10 10 11 12 13 14 15 16 16 16 16 15 17 18 18 18 18 18 18 18 18 18 18 18 19 18 18 19 18 20 21 22 22 19 18 20 22 21 20 20 20 20 20
9 9 10 11 11 12 13 14 15 16 14 14 14 15 17 18 19 18 18 18 18 18 18 18 18 18 18 18 17 20 20 21 22 21 21 19 18 20 22 21 20 20 20 20 19
9 9 10 11 11 12 13 14 15 14 13 16 17 17 20 19 19 18 18 18 19 18 18 18 17 17 19 20 20 21 20 20 21 22 21 19 19 20 21 22 21 20 19 19 17
7 8 9 11 11 11 11 12 10 10 11 14 16 16 17 19 19 18 19 19 19 18 19 18 17 20 21 21 21 21 20 19 20 22 21 19 19 20 20 21 21 20 18 17 16
6 7 7 10 10 10 10 9 9 10 11 14 16 16 17 18 19 19 19 19 19 18 19 18 20 22 21 20 20 19 19 19 20 21 20 19 18 19 21 21 18 17 17 16 13
6 6 7 10 9 10 10 10 11 10 11 17 18 18 18 18 18 18 19 19 19 19 19 19 21 21 20 20 21 18 20 20 20 18 16 20 16 18 19 17 16 17 17 14 11
6 6 7 6 6 7 8 10 11 10 13 20 19 17 19 19 19 19 19 19 18 19 20 19 20 20 19 20 20 19 20 19 19 17 17 17 16 19 20 16 16 17 16 14 11
5 6 7 7 7 7 8 9 10 12 14 19 18 17 18 19 19 19 19 19 19 19 20 20 21 20 20 21 20 20 19 18 18 16 14 17 17 18 18 18 17 17 16 13 11
4 5 6 6 7 8 8 9 11 12 20 20 19 18 18 18 18 19 18 18 17 16 17 19 20 20 20 19 19 18 17 13 14 13 14 18 18 17 18 19 17 16 15 13 11
4 4 6 6 7 7 7 9 10 16 18 20 19 19 18 19 18 18 18 17 18 18 18 16 17 19 19 18 17 17 17 13 13 14 13 17 14 18 18 17 18 17 14 12 10
3 4 4 5 6 5 6 8 12 15 17 16 16 17 17 18 18 18 18 17 18 18 17 18 18 21 20 19 19 17 15 18 16 17 14 14 18 17 16 15 15 15 13 12 10
3 2 3 5 5 5 6 8 12 14 15 14 13 15 16 17 17 17 17 19 18 19 19 19 17 20 18 19 18 18 19 15 15 13 14 17 18 17 15 15 14 14 13 12 11
2 3 4 6 6 5 5 7 10 11 12 12 12 13 14 14 16 17 17 18 19 18 19 18 17 18 16 16 17 17 16 17 17 16 16 17 19 19 16 16 15 14 14 12 10
2 3 4 6 5 6 6 8 9 10 11 11 12 12 12 12 12 13 14 17 18 18 17 19 17 16 15 18 18 17 17 18 15 16 16 17 16 21 17 17 16 16 15 13 11
1 2 2 4 3 4 7 8 9 9 10 10 11 12 12 11 10 11 12 14 13 13 15 17 16 14 16 16 17 16 18 18 18 17 16 15 17 20 17 17 18 16 15 14 11
0 1 2 3 3 5 6 7 9 10 10 11 9 9 9 9 11 10 10 10 10 12 12 13 15 15 14 17 16 16 17 18 18 16 17 17 18 18 17 16 16 16 15 14 11
0 0 2 2 2 3 6 6 8 9 11 11 10 10 9 9 9 10 11 11 10 10 11 11 14 14 15 17 18 17 17 17 17 18 17 18 18 18 17 16 16 16 15 13 11
0 -0 0 1 2 0 3 6 7 9 10 10 9 10 10 8 9 8 7 7 5 8 10 10 12 14 14 16 17 17 19 17 17 18 18 19 19 20 19 19 17 16 15 13 12
-0 -0 0 1 2 2 4 5 6 9 9 10 10 9 9 10 10 9 8 8 5 4 7 8 10 12 12 15 16 16 18 18 18 18 18 17 19 19 17 17 17 16 15 14 13

GFSSW_850_temp_147.txt.gz
Temp
14 14 15 15 15 16 16 16 16 17 17 17 17 17 18 18 18 17 18 19 19 19 18 17 17 17 18 18 18 19 15 15 19 19 20 22 21 22 22 22 22 22 21 20 20
14 14 14 15 15 15 16 16 16 16 17 17 17 17 17 18 18 19 20 18 18 19 18 17 18 18 18 18 18 17 14 18 21 21 20 21 21 21 21 20 21 21 20 20 20
13 13 14 14 15 15 16 16 16 16 17 17 17 17 17 17 17 20 20 20 19 19 18 18 18 18 18 19 18 18 16 19 21 21 21 20 20 21 21 19 21 20 20 20 20
11 12 13 13 14 14 15 15 16 16 17 17 17 17 17 17 17 20 20 19 18 19 18 18 18 18 18 17 19 18 19 20 20 21 20 20 20 20 20 21 21 21 20 19 19
10 10 11 11 12 13 14 15 15 16 16 17 17 17 16 16 18 19 19 19 19 19 18 18 18 19 17 18 19 18 19 21 21 21 20 20 19 19 20 21 21 20 21 20 19
10 10 11 11 12 13 13 14 15 16 16 16 17 16 16 14 19 19 19 19 19 18 18 18 19 19 19 19 18 20 20 20 20 20 20 19 19 19 20 21 21 20 20 19 19
10 10 10 11 12 13 13 14 15 15 16 16 16 16 15 18 18 19 19 19 19 18 18 18 19 19 19 17 20 20 18 17 18 20 19 20 17 17 21 20 20 19 19 19 19
10 10 11 11 12 13 14 14 15 16 16 16 16 15 16 19 19 17 18 18 18 18 18 18 19 19 18 19 18 17 17 16 17 19 20 19 15 17 21 21 20 20 19 19 19
9 10 11 11 12 13 14 15 15 15 16 15 15 14 14 18 18 18 18 18 18 18 18 18 18 18 18 16 14 15 14 15 17 19 18 18 16 17 20 21 20 20 20 20 19
9 9 10 11 12 13 14 15 15 15 14 14 14 13 16 18 19 19 18 18 18 18 18 18 17 15 14 13 12 14 15 17 17 19 18 17 15 16 20 20 20 20 20 19 17
9 9 11 12 12 12 13 15 14 14 13 13 14 16 18 18 19 19 18 18 18 18 14 17 13 12 13 14 15 16 16 16 17 19 18 16 16 16 18 20 18 18 19 16 16
8 8 9 11 12 11 10 10 8 8 9 13 15 15 17 18 17 18 18 18 17 15 15 15 13 15 16 17 17 16 16 16 17 19 19 17 16 16 16 18 19 18 16 15 14
7 8 9 10 11 10 9 9 9 9 9 11 14 14 15 17 15 18 18 18 16 14 15 14 15 17 17 17 17 17 17 16 16 18 17 17 15 16 17 16 17 16 15 15 15
7 7 8 10 10 10 9 9 10 9 7 11 15 16 16 16 16 17 18 18 16 16 15 15 17 17 17 17 17 16 18 18 18 16 14 16 12 15 17 14 14 14 14 13 13
7 7 7 7 7 8 8 9 10 10 10 17 17 18 18 17 18 18 18 18 16 16 15 15 17 17 17 18 18 17 19 18 18 16 14 15 13 12 14 13 12 12 12 12 12
6 6 7 7 8 7 7 9 10 9 10 16 17 16 17 17 18 19 18 18 18 16 16 16 19 19 17 19 18 18 17 17 16 13 11 13 13 12 14 14 13 12 11 12 11
4 4 5 5 7 8 8 9 8 8 15 17 17 16 16 16 16 17 17 16 15 14 14 16 17 17 20 18 18 16 13 9 12 9 10 15 13 14 16 14 15 12 11 11 11
4 4 4 5 6 6 6 7 7 11 13 16 15 15 15 16 16 16 15 14 15 15 14 14 14 17 17 17 15 14 13 9 11 10 11 14 13 15 16 14 14 12 12 11 10
4 4 3 6 6 5 5 5 8 11 14 13 13 14 14 15 15 15 14 15 15 16 14 14 14 17 18 17 17 14 14 14 13 12 10 11 14 16 13 13 12 11 11 10 10
3 3 3 6 5 5 4 6 8 12 11 11 9 12 12 12 12 13 13 16 16 16 17 16 15 17 17 17 16 15 15 13 11 12 13 12 14 14 12 12 12 11 10 10 10
2 2 4 5 4 4 3 4 8 9 10 10 10 10 11 10 11 11 11 13 12 13 15 16 15 15 16 15 15 15 15 15 13 11 12 13 14 15 14 13 12 11 10 10 10
1 0 4 4 3 4 3 6 7 7 8 8 9 9 9 9 9 10 11 10 10 11 9 11 14 15 14 15 16 17 16 15 11 13 12 12 14 16 14 13 13 12 11 11 10
1 1 2 3 1 2 3 5 6 6 7 8 8 9 9 9 8 9 10 11 11 9 8 10 10 14 14 14 14 14 14 16 15 13 13 12 14 14 12 12 13 12 12 11 10
0 1 1 2 2 2 3 3 3 7 7 8 8 8 7 7 8 7 8 10 10 9 10 8 9 10 14 15 14 14 15 15 16 15 15 14 16 16 14 12 12 12 12 11 10
-0 0 1 -1 1 1 2 3 3 3 6 8 8 8 8 7 7 7 8 7 8 8 7 7 6 8 10 15 15 16 15 16 15 15 14 16 16 16 14 13 13 13 11 10 9
-1 -1 -0 -0 1 1 1 2 3 3 5 5 7 8 7 6 7 7 7 6 6 6 6 7 6 7 8 12 13 14 15 15 16 16 16 16 15 18 17 14 13 12 11 9 9
-1 -1 -0 0 1 0 1 2 3 5 3 3 6 7 7 8 9 8 7 7 5 4 5 5 5 6 8 10 12 12 14 15 15 16 16 15 17 18 14 15 13 13 12 10 10